1498417200.2,41155,24.44,74002.8,6.71,-12.93,-15.53,0,*72
1498417201.43,41156,24.44,74006.5,6.71,-12.79,-15.53,0,*75
1498417202.67,41157,24.44,74004.8,6.71,-12.75,-15.53,0,*78
1498417203.92,41158,24.44,74006.3,6.73,-12.65,-15.49,0,*7F
1498417205.18,41159,24.44,74004.3,6.73,-12.61,-15.49,0,*7A
1498417206.41,41160,24.44,74002.8,6.71,-12.65,-15.49,0,*76
1498417207.64,41161,24.44,74002.0,6.71,-12.71,-15.53,0,*79
1498417208.9,41162,24.44,74002.3,6.73,-12.61,-15.49,0,*72
1498417210.13,41163,24.44,74006.8,6.71,-12.83,-15.53,0,*76
1498417211.35,41164,24.44,74000.8,6.71,-12.79,-15.67,0,*73
1498417212.57,41165,24.44,74002.8,6.71,-12.83,-15.67,0,*77
1498417213.82,41166,24.44,74002.5,6.71,-12.71,-15.57,0,*7A
1498417215.07,41167,24.44,74000.3,6.71,-12.65,-15.57,0,*7E
1498417216.31,41168,24.44,74006.3,6.71,-12.79,-15.53,0,*78
1498417217.54,41169,24.44,74006.3,6.71,-12.71,-15.53,0,*71
1498417218.8,41170,24.44,74000.0,6.69,-12.71,-15.53,0,*70
1498417220.07,41171,24.44,74002.3,6.69,-12.71,-15.57,0,*75
1498417221.35,41172,24.44,74000.0,6.69,-12.71,-15.57,0,*76
1498417222.59,41173,24.44,74006.5,6.69,-12.65,-15.67,0,*71
1498417223.87,41174,24.44,74002.5,6.69,-12.65,-15.57,0,*75
1498417225.12,41175,24.44,74000.3,6.69,-12.71,-15.63,0,*76
1498417226.35,41176,24.38,73998.3,6.71,-12.65,-15.53,0,*7A
1498417227.6,41177,24.44,74000.5,6.71,-12.65,-15.57,0,*7F
1498417228.86,41178,24.44,74002.5,6.69,-12.65,-15.53,0,*7D
1498417230.11,41179,24.44,74002.8,6.69,-12.65,-15.53,0,*7C
1498417231.37,41180,24.44,74000.0,6.67,-12.71,-15.57,0,*75
1498417232.62,41181,24.44,74000.8,6.69,-12.61,-15.53,0,*7F
1498417233.87,41182,24.44,74004.0,6.67,-12.65,-15.57,0,*72
1498417235.13,41183,24.44,74000.3,6.69,-12.61,-15.49,0,*76
1498417236.38,41184,24.44,74002.8,6.69,-12.61,-15.53,0,*7A
1498417237.63,41185,24.44,74002.8,6.69,-12.61,-15.49,0,*70
1498417238.89,41186,24.44,74002.0,6.69,-12.61,-15.49,0,*73
1498417240.13,41187,24.44,74004.3,6.71,-12.53,-15.49,0,*7A
1498417241.39,41188,24.44,74000.8,6.69,-12.53,-15.49,0,*7C
1498417242.62,41189,24.44,74002.8,6.71,-12.53,-15.49,0,*74
1498417243.86,41190,24.44,74002.5,6.67,-12.65,-15.53,0,*75
1498417245.11,41191,24.44,74002.3,6.67,-12.57,-15.57,0,*71
1498417246.37,41192,24.44,74000.8,6.69,-12.53,-15.49,0,*77
1498417247.6,41193,24.44,74000.8,6.69,-12.47,-15.53,0,*78
1498417248.86,41194,24.44,74002.5,6.69,-12.53,-15.53,0,*7A
1498417250.12,41195,24.44,74002.8,6.69,-12.39,-15.39,0,*7B
1498417251.35,41196,24.44,74002.8,6.67,-12.43,-15.39,0,*7B
1498417252.58,41197,24.44,74000.5,6.67,-12.39,-15.35,0,*7B
1498417253.79,41198,24.44,74004.5,6.67,-12.43,-15.53,0,*79
1498417255.02,41199,24.44,74000.8,6.71,-12.39,-15.39,0,*7E
1498417256.25,41200,24.44,74006.0,6.67,-12.43,-15.39,0,*77
1498417257.5,41201,24.44,74006.3,6.69,-12.39,-15.39,0,*75
1498417258.73,41202,24.44,74006.8,6.67,-12.43,-15.43,0,*78
1498417259.94,41203,24.44,74002.3,6.67,-12.39,-15.49,0,*7E
1498417261.18,41204,24.44,74004.0,6.69,-12.47,-15.49,0,*7E
1498417262.41,41205,24.44,74000.8,6.69,-12.39,-15.49,0,*76
1498417263.64,41206,24.44,74002.5,6.67,-12.43,-15.43,0,*7C
1498417264.85,41207,24.44,74000.3,6.67,-12.43,-15.53,0,*7C
1498417266.08,41208,24.44,74000.5,6.67,-12.39,-15.43,0,*7F
1498417267.35,41209,24.44,74002.8,6.69,-12.35,-15.35,0,*7D
1498417268.59,41210,24.44,74000.5,6.67,-12.29,-15.39,0,*7A
1498417269.82,41211,24.44,74002.0,6.65,-12.43,-15.49,0,*72
1498417271.1,41212,24.44,74002.5,6.65,-12.35,-15.43,0,*7A
1498417272.34,41213,24.44,74000.0,6.67,-12.29,-15.39,0,*79
1498417273.58,41214,24.44,73998.5,6.67,-12.39,-15.39,0,*7F
1498417274.82,41215,24.44,74000.8,6.67,-12.29,-15.43,0,*72
1498417276.05,41216,24.44,74006.3,6.67,-12.29,-15.39,0,*7C
1498417277.29,41217,24.44,74002.0,6.67,-12.15,-15.29,0,*73
1498417278.53,41218,24.44,74002.5,6.67,-12.15,-15.25,0,*70
1498417279.81,41219,24.44,74000.5,6.65,-12.15,-15.35,0,*72
1498417281.07,41220,24.44,74002.0,6.65,-12.29,-15.43,0,*76
1498417282.32,41221,24.44,74000.5,6.65,-12.29,-15.43,0,*77
1498417283.56,41222,24.44,74000.0,6.63,-12.29,-15.43,0,*72
1498417284.83,41223,24.44,74002.5,6.65,-12.15,-15.35,0,*7B
1498417286.11,41224,24.44,74002.5,6.65,-12.15,-15.35,0,*7C
1498417287.37,41225,24.44,74002.0,6.65,-12.07,-15.29,0,*73
1498417288.63,41226,24.44,74000.8,6.65,-12.15,-15.29,0,*73
1498417289.88,41227,24.44,74002.3,6.65,-12.03,-15.21,0,*7D
1498417291.13,41228,24.44,74000.8,6.65,-12.03,-15.21,0,*72
1498417292.4,41229,24.44,74000.8,6.65,-12.07,-15.35,0,*72
1498417293.66,41230,24.44,74000.5,6.63,-12.15,-15.35,0,*7F
1498417294.91,41231,24.44,74000.5,6.65,-12.03,-15.21,0,*7A
1498417296.16,41232,24.44,73996.8,6.65,-11.93,-15.15,0,*74
1498417297.41,41233,24.44,74000.0,6.65,-12.03,-15.21,0,*78
1498417298.66,41234,24.44,74000.3,6.65,-12.03,-15.21,0,*7F
1498417299.92,41235,24.44,73998.3,6.65,-11.93,-15.15,0,*73
1498417301.18,41236,24.44,74002.0,6.65,-11.93,-15.15,0,*70
1498417302.46,41237,24.44,74002.3,6.65,-11.93,-15.21,0,*76
1498417303.71,41238,24.44,74002.0,6.65,-12.03,-15.21,0,*73
1498417304.96,41239,24.44,74002.0,6.65,-11.93,-15.15,0,*7F
1498417306.22,41240,24.44,74002.0,6.65,-11.93,-15.15,0,*71
1498417307.5,41241,24.44,73998.0,6.65,-11.89,-15.21,0,*7C
1498417308.75,41242,24.44,74000.0,6.65,-11.89,-15.15,0,*78
1498417310.0,41243,24.44,74002.3,6.65,-11.85,-15.15,0,*75
1498417311.25,41244,24.44,74002.5,6.65,-11.89,-15.07,0,*7D
1498417312.52,41245,24.44,73998.3,6.65,-11.85,-15.01,0,*76
1498417313.78,41246,24.44,74002.5,6.65,-11.85,-15.15,0,*70
1498417315.05,41247,24.44,74000.0,6.65,-11.77,-15.01,0,*79
1498417316.32,41248,24.44,74000.0,6.65,-11.73,-15.01,0,*72
1498417317.6,41249,24.44,74002.3,6.65,-11.77,-15.01,0,*77
1498417318.84,41250,24.44,74000.0,6.65,-11.73,-15.07,0,*7D
1498417320.11,41251,24.44,74002.5,6.65,-11.73,-15.01,0,*7A
1498417321.37,41252,24.44,74000.3,6.65,-11.63,-14.89,0,*79
1498417322.62,41253,24.44,74002.3,6.63,-11.63,-14.93,0,*75
1498417323.87,41254,24.44,74000.3,6.63,-11.73,-15.01,0,*79
1498417325.14,41255,24.44,74002.8,6.65,-11.77,-14.93,0,*70
1498417326.42,41256,24.44,74000.0,6.65,-11.63,-15.01,0,*7C
1498417327.7,41257,24.44,74000.3,6.65,-11.63,-14.93,0,*77
1498417328.92,41258,24.44,74002.0,6.63,-11.73,-15.07,0,*73
1498417330.2,41259,24.44,74000.8,6.65,-11.63,-15.01,0,*73
1498417331.45,41260,24.44,74006.3,6.63,-11.63,-15.01,0,*7F
1498417332.7,41261,24.44,73998.3,6.63,-11.73,-15.01,0,*7F
1498417333.98,41262,24.44,74000.8,6.65,-11.63,-15.01,0,*7B
1498417335.22,41263,24.44,74000.0,6.65,-11.73,-15.07,0,*7D
1498417336.46,41264,24.44,74002.8,6.63,-11.63,-14.89,0,*7A
1498417337.71,41265,24.44,74002.5,6.63,-11.63,-14.93,0,*70
1498417338.96,41266,24.44,74000.3,6.65,-11.51,-14.89,0,*7F
1498417340.21,41267,24.44,74002.3,6.63,-11.51,-14.93,0,*73
1498417341.42,41268,24.44,74000.8,6.63,-11.45,-14.89,0,*72
1498417342.65,41269,24.44,74000.3,6.63,-11.51,-14.89,0,*76
1498417343.86,41270,24.44,73996.8,6.63,-11.45,-14.89,0,*7B
1498417345.12,41271,24.44,74000.0,6.65,-11.45,-14.93,0,*77
1498417346.35,41272,24.44,74002.5,6.63,-11.33,-14.89,0,*78
1498417347.6,41273,24.44,74000.5,6.63,-11.37,-14.79,0,*72
1498417348.85,41274,24.44,74000.8,6.63,-11.33,-14.79,0,*71
1498417350.07,41275,24.44,74000.3,6.63,-11.19,-14.75,0,*74
1498417351.29,41276,24.44,73998.3,6.63,-11.19,-14.75,0,*77
1498417352.52,41277,24.44,74000.0,6.63,-11.19,-14.79,0,*7A
1498417353.74,41278,24.44,74000.0,6.65,-11.19,-14.61,0,*7A
1498417354.94,41279,24.44,73998.0,6.63,-11.11,-14.61,0,*75
1498417356.14,41280,24.44,74000.8,6.63,-11.11,-14.61,0,*73
1498417357.37,41281,24.38,73998.3,6.63,-11.07,-14.61,0,*75
1498417358.6,41282,24.44,74002.3,6.61,-11.15,-14.61,0,*77
1498417359.84,41283,24.44,73998.8,6.65,-11.11,-14.55,0,*71
1498417361.07,41284,24.44,74000.0,6.63,-11.11,-14.55,0,*70
1498417362.27,41285,24.44,73998.3,6.63,-11.11,-14.61,0,*76
1498417363.5,41286,24.44,74002.3,6.63,-11.11,-14.55,0,*72
1498417364.72,41287,24.44,74000.0,6.63,-11.11,-14.55,0,*73
1498417365.98,41288,24.44,74000.5,6.63,-11.07,-14.55,0,*7B
1498417367.24,41289,24.44,74000.8,6.63,-11.07,-14.47,0,*79
1498417368.49,41290,24.38,73996.5,6.63,-11.07,-14.55,0,*72
1498417369.74,41291,24.44,74002.5,6.61,-11.11,-14.51,0,*72
1498417370.97,41292,24.44,73996.8,6.63,-11.11,-14.47,0,*74
1498417372.23,41293,24.44,74000.8,6.63,-11.07,-14.47,0,*72
1498417373.43,41294,24.44,74000.5,6.63,-11.01,-14.33,0,*70
1498417374.65,41295,24.44,74002.0,6.63,-10.93,-14.43,0,*7C
1498417375.89,41296,24.44,74002.3,6.63,-11.01,-14.47,0,*71
1498417377.11,41297,24.38,73998.3,6.63,-10.93,-14.43,0,*7E
1498417378.31,41298,24.44,74002.0,6.63,-10.93,-14.33,0,*76
1498417379.51,41299,24.38,74000.5,6.63,-10.89,-14.33,0,*7C
1498417380.75,41300,24.44,74000.0,6.65,-10.89,-14.43,0,*7C
1498417381.95,41301,24.44,74000.3,6.63,-10.89,-14.29,0,*77
1498417383.18,41302,24.44,74002.3,6.63,-10.75,-14.19,0,*74
1498417384.43,41303,24.44,74000.3,6.61,-10.71,-14.33,0,*7B
1498417385.63,41304,24.44,74002.0,6.59,-10.85,-14.23,0,*7D
1498417386.88,41305,24.44,74000.8,6.61,-10.79,-14.19,0,*7D
1498417388.13,41306,24.44,74002.8,6.61,-10.71,-14.11,0,*7E
1498417389.38,41307,24.44,74002.8,6.61,-10.71,-14.19,0,*77
1498417390.64,41308,24.44,74004.3,6.61,-10.71,-14.19,0,*78
1498417391.86,41309,24.38,73998.0,6.61,-10.57,-14.11,0,*75
1498417393.14,41310,24.44,74002.0,6.61,-10.71,-14.05,0,*7C
1498417394.39,41311,24.44,74002.5,6.61,-10.71,-14.11,0,*78
1498417395.67,41312,24.44,74002.5,6.61,-10.67,-14.05,0,*79
1498417396.9,41313,24.38,73998.0,6.59,-10.57,-13.97,0,*7C
1498417398.18,41314,24.44,74000.8,6.61,-10.67,-14.05,0,*7F
1498417399.44,41315,24.44,74002.0,6.61,-10.45,-13.97,0,*72
1498417400.69,41316,24.44,74000.3,6.61,-10.53,-13.97,0,*76
1498417401.93,41317,24.44,74004.5,6.63,-10.41,-13.79,0,*76
1498417403.13,41318,24.44,74004.8,6.59,-10.45,-13.93,0,*70
1498417404.34,41319,24.44,74000.3,6.61,-10.53,-13.93,0,*7D
1498417405.56,41320,24.44,74004.3,6.61,-10.53,-13.93,0,*77
1498417406.8,41321,24.38,74002.3,6.61,-10.53,-13.83,0,*77
1498417408.05,41322,24.44,74002.3,6.61,-10.31,-13.83,0,*70
1498417409.32,41323,24.38,73998.0,6.61,-10.41,-13.83,0,*76
1498417410.54,41324,24.38,74000.3,6.61,-10.45,-13.93,0,*74
1498417411.79,41325,24.44,74002.3,6.59,-10.41,-13.83,0,*7B
1498417413.03,41326,24.44,74000.3,6.61,-10.31,-13.79,0,*71
1498417414.28,41327,24.44,74000.5,6.61,-10.31,-13.79,0,*70
1498417415.5,41328,24.38,74000.8,6.61,-10.31,-13.73,0,*75
1498417416.69,41329,24.44,74002.5,6.63,-10.27,-13.69,0,*7A
1498417417.92,41330,24.38,73998.8,6.61,-10.27,-13.65,0,*7C
1498417419.14,41331,24.44,74002.3,6.61,-10.27,-13.65,0,*7D
1498417420.33,41332,24.44,74004.5,6.63,-10.05,-13.43,0,*78
1498417421.52,41333,24.44,74004.0,6.63,-10.23,-13.47,0,*79
1498417422.75,41334,24.38,74000.5,6.61,-10.19,-13.51,0,*72
1498417423.96,41335,24.38,73998.8,6.61,-10.09,-13.47,0,*75
1498417425.18,41336,24.44,74000.5,6.61,-10.15,-13.47,0,*7B
1498417426.39,41337,24.44,74002.5,6.59,-10.15,-13.51,0,*76
1498417427.61,41338,24.44,74000.3,6.59,-10.09,-13.37,0,*74
1498417428.86,41339,24.44,74004.8,6.61,-10.15,-13.37,0,*73
1498417430.11,41340,24.44,74002.3,6.61,-10.09,-13.37,0,*70
1498417431.35,41341,24.38,74002.5,6.61,-10.01,-13.33,0,*7D
1498417432.57,41342,24.44,74002.0,6.59,-9.97,-13.33,0,*42
1498417433.8,41343,24.38,74000.3,6.61,-10.01,-13.23,0,*7E
1498417435.01,41344,24.38,74002.5,6.63,-9.83,-13.15,0,*4C
1498417436.22,41345,24.44,74006.0,6.63,-9.83,-13.15,0,*4D
1498417437.4,41346,24.44,74000.3,6.63,-9.93,-13.15,0,*4F
1498417438.6,41347,24.44,74002.3,6.63,-9.79,-13.07,0,*49
1498417439.84,41348,24.44,74000.8,6.59,-9.83,-12.83,0,*47
1498417441.07,41349,24.44,74002.8,6.61,-9.71,-12.97,0,*45
1498417442.31,41350,24.44,74002.8,6.61,-9.61,-12.97,0,*4C
1498417443.57,41351,24.44,74004.0,6.61,-9.57,-12.83,0,*4D
1498417444.84,41352,24.44,74002.5,6.61,-9.61,-12.83,0,*4B
1498417446.11,41353,24.44,74004.0,6.61,-9.57,-12.75,0,*46
1498417447.38,41354,24.44,74000.3,6.61,-9.49,-12.61,0,*4B
1498417448.64,41355,24.38,74000.8,6.61,-9.57,-12.75,0,*40
1498417449.92,41356,24.38,74002.5,6.61,-9.49,-12.75,0,*4C
1498417451.18,41357,24.44,74000.3,6.61,-9.57,-12.65,0,*43
1498417452.44,41358,24.44,74000.5,6.61,-9.45,-12.65,0,*4F
1498417453.71,41359,24.44,74000.0,6.61,-9.49,-12.65,0,*42
1498417454.98,41360,24.44,74002.8,6.61,-9.49,-12.53,0,*4D
1498417456.23,41361,24.44,74002.5,6.61,-9.37,-12.39,0,*49
1498417457.48,41362,24.44,74004.3,6.61,-9.37,-12.47,0,*43
1498417458.71,41363,24.44,74006.3,6.61,-9.31,-12.47,0,*44
1498417459.96,41364,24.44,74006.5,6.61,-9.37,-12.39,0,*4C
1498417461.21,41365,24.44,74002.3,6.61,-9.37,-12.39,0,*4D
1498417462.46,41366,24.44,74004.5,6.61,-9.31,-12.35,0,*44
1498417463.71,41367,24.44,74004.0,6.61,-9.31,-12.35,0,*45
1498417464.95,41368,24.38,74002.3,6.63,-9.15,-12.21,0,*4B
1498417466.17,41369,24.38,74000.5,6.61,-9.19,-12.21,0,*44
1498417467.42,41370,24.38,74002.5,6.61,-9.19,-12.07,0,*48
1498417468.68,41371,24.44,74000.8,6.61,-9.05,-11.93,0,*4A
1498417469.93,41372,24.44,74004.5,6.61,-9.05,-11.93,0,*49
1498417471.19,41373,24.38,74000.0,6.61,-8.93,-11.97,0,*42
1498417472.42,41374,24.44,74002.5,6.59,-8.89,-11.89,0,*4A
1498417473.67,41375,24.38,74000.3,6.61,-8.89,-11.81,0,*48
1498417474.89,41376,24.44,74002.5,6.63,-8.75,-11.73,0,*47
1498417476.12,41377,24.44,74004.3,6.63,-8.75,-11.63,0,*47
1498417477.35,41378,24.44,74002.3,6.63,-8.71,-11.63,0,*4C
1498417478.57,41379,24.38,74002.0,6.63,-8.75,-11.63,0,*49
1498417479.79,41380,24.44,74006.0,6.63,-8.63,-11.51,0,*49
1498417481.02,41381,24.44,74006.5,6.63,-8.71,-11.59,0,*43
1498417482.24,41382,24.38,74002.3,6.63,-8.63,-11.51,0,*4B
1498417483.46,41383,24.44,74000.8,6.63,-8.63,-11.51,0,*4A
1498417484.66,41384,24.44,74002.5,6.63,-8.63,-11.45,0,*48
1498417485.91,41385,24.44,74006.3,6.63,-8.51,-11.37,0,*4D
1498417487.16,41386,24.38,74006.0,6.63,-8.51,-11.37,0,*4E
1498417488.38,41387,24.38,74002.3,6.63,-8.51,-11.23,0,*4A
1498417489.58,41388,24.44,74004.8,6.63,-8.45,-11.23,0,*40
1498417490.8,41389,24.38,74000.8,6.61,-8.37,-11.15,0,*43
1498417492.02,41390,24.44,74002.3,6.61,-8.37,-11.15,0,*4B
1498417493.24,41391,24.38,74000.3,6.63,-8.29,-11.07,0,*44
1498417494.49,41392,24.44,74004.3,6.65,-8.29,-11.07,0,*41
1498417495.69,41393,24.38,74002.3,6.63,-8.29,-11.01,0,*40
1498417496.91,41394,24.44,74006.5,6.65,-8.21,-10.93,0,*43
1498417498.13,41395,24.44,74006.0,6.65,-8.17,-10.89,0,*4C
1498417499.38,41396,24.38,74000.5,6.61,-8.21,-10.79,0,*41
1498417500.62,41397,24.38,74000.8,6.63,-8.03,-10.67,0,*4D
1498417501.88,41398,24.38,74004.3,6.63,-8.07,-10.79,0,*49
1498417503.12,41399,24.44,74004.5,6.61,-8.11,-10.85,0,*4E
1498417504.37,41400,24.44,74002.5,6.63,-8.03,-10.75,0,*47
1498417505.61,41401,24.38,74002.3,6.63,-8.03,-10.67,0,*45
1498417506.86,41402,24.44,74006.8,6.63,-7.91,-10.63,0,*46
1498417508.08,41403,24.38,74000.8,6.63,-7.91,-10.53,0,*44
1498417509.3,41404,24.38,74004.8,6.63,-7.77,-10.49,0,*40
1498417510.55,41405,24.44,74004.3,6.65,-7.77,-10.35,0,*4C
1498417511.78,41406,24.44,74006.5,6.63,-7.77,-10.27,0,*4A
1498417513.01,41407,24.44,74010.8,6.63,-7.65,-10.27,0,*48
1498417514.23,41408,24.44,74006.0,6.63,-7.69,-10.27,0,*4B
1498417515.46,41409,24.44,74006.8,6.63,-7.65,-10.23,0,*42
1498417516.65,41410,24.44,74006.0,6.63,-7.53,-10.05,0,*4B
1498417517.84,41411,24.44,74004.8,6.63,-7.53,-9.97,0,*79
1498417519.05,41412,24.38,74004.8,6.63,-7.39,-9.93,0,*72
1498417520.29,41413,24.38,74004.0,6.63,-7.39,-9.83,0,*72
1498417521.53,41414,24.44,74004.3,6.63,-7.27,-9.83,0,*7A
1498417522.79,41415,24.38,74006.5,6.65,-7.35,-9.83,0,*7E
1498417524.01,41416,24.38,74004.0,6.63,-7.23,-9.83,0,*7C
1498417525.2,41417,24.44,74006.0,6.63,-7.15,-9.67,0,*72
1498417526.44,41418,24.38,74004.5,6.65,-7.11,-9.57,0,*7C
1498417527.66,41419,24.38,74006.5,6.63,-7.11,-9.57,0,*7B
1498417528.87,41420,24.44,74004.3,6.63,-7.11,-9.57,0,*71
1498417530.1,41421,24.44,74004.3,6.63,-7.11,-9.45,0,*73
1498417531.34,41422,24.38,74006.5,6.63,-6.97,-9.41,0,*7B
1498417532.55,41423,24.38,74004.8,6.65,-6.89,-9.23,0,*77
1498417533.78,41424,24.44,74006.5,6.65,-6.97,-9.31,0,*7C
1498417535.02,41425,24.38,74002.8,6.65,-6.85,-9.41,0,*79
1498417536.26,41426,24.44,74006.0,6.65,-6.77,-9.15,0,*76
1498417537.5,41427,24.38,74006.5,6.65,-6.69,-9.11,0,*7C
1498417538.74,41428,24.44,74006.5,6.65,-6.77,-9.11,0,*7C
1498417539.98,41429,24.44,74008.5,6.65,-6.73,-9.11,0,*79
1498417541.2,41430,24.38,74006.3,6.65,-6.73,-9.01,0,*70
1498417542.4,41431,24.44,74006.8,6.65,-6.69,-8.97,0,*74
1498417543.62,41432,24.44,74010.8,6.65,-6.59,-8.97,0,*74
1498417544.83,41433,24.44,74008.3,6.65,-6.55,-8.97,0,*79
1498417546.05,41434,24.38,74006.5,6.65,-6.59,-8.89,0,*7D
1498417547.27,41435,24.38,74006.0,6.65,-6.59,-8.89,0,*7C
1498417548.49,41436,24.44,74006.8,6.65,-6.59,-8.89,0,*7F
1498417549.7,41437,24.38,74006.0,6.65,-6.43,-8.63,0,*71
1498417550.91,41438,24.38,74004.0,6.65,-6.31,-8.59,0,*72
1498417552.17,41439,24.38,74006.5,6.65,-6.23,-8.51,0,*78
1498417553.39,41440,24.44,74010.0,6.63,-6.19,-8.45,0,*7C
1498417554.58,41441,24.38,74006.3,6.67,-6.05,-8.37,0,*71
1498417555.77,41442,24.44,74008.3,6.67,-6.01,-8.25,0,*75
1498417556.99,41443,24.38,74004.8,6.67,-6.01,-8.11,0,*73
1498417558.24,41444,24.38,74004.5,6.67,-5.93,-8.11,0,*7C
1498417559.48,41445,24.38,74008.0,6.65,-5.85,-8.17,0,*7E
1498417560.75,41446,24.38,74006.3,6.65,-5.85,-8.07,0,*7C
1498417562.02,41447,24.44,74010.5,6.65,-5.81,-7.95,0,*7D
1498417563.28,41448,24.38,74006.3,6.65,-5.77,-7.95,0,*7B
1498417564.51,41449,24.38,74004.5,6.67,-5.73,-7.91,0,*78
1498417565.73,41450,24.38,74006.5,6.67,-5.61,-7.87,0,*74
1498417566.96,41451,24.38,74008.3,6.67,-5.51,-7.73,0,*7D
1498417568.2,41452,24.38,74006.5,6.65,-5.55,-7.65,0,*7F
1498417569.45,41453,24.38,74008.5,6.65,-5.51,-7.57,0,*7B
1498417570.64,41454,24.38,74004.8,6.67,-5.39,-7.49,0,*7F
1498417571.88,41455,24.38,74008.0,6.69,-5.35,-7.31,0,*73
1498417573.11,41456,24.44,74008.8,6.69,-5.35,-7.31,0,*70
1498417574.33,41457,24.38,74006.3,6.67,-5.35,-7.35,0,*7B
1498417575.55,41458,24.38,74004.3,6.67,-5.35,-7.35,0,*74
1498417576.82,41459,24.44,74010.0,6.69,-5.23,-7.31,0,*78
1498417578.06,41460,24.38,74008.8,6.67,-5.27,-7.31,0,*78
1498417579.28,41461,24.44,74010.0,6.67,-5.15,-7.23,0,*7B
1498417580.5,41462,24.38,74008.0,6.67,-5.11,-7.11,0,*7D
1498417581.73,41463,24.38,74008.8,6.69,-4.99,-6.93,0,*78
1498417582.95,41464,24.38,74004.8,6.67,-4.99,-6.93,0,*71
1498417584.19,41465,24.38,74004.0,6.69,-4.89,-6.81,0,*7C
1498417585.43,41466,24.38,74008.5,6.69,-4.89,-6.81,0,*7F
1498417586.65,41467,24.38,74006.3,6.67,-4.93,-6.81,0,*7B
1498417587.87,41468,24.38,74008.5,6.69,-4.77,-6.69,0,*76
1498417589.08,41469,24.38,74008.3,6.67,-4.85,-6.73,0,*7F
1498417590.32,41470,24.38,74010.3,6.67,-4.81,-6.63,0,*72
1498417591.55,41471,24.38,74010.0,6.69,-4.69,-6.47,0,*7D
1498417592.75,41472,24.38,74010.5,6.67,-4.61,-6.43,0,*7C
1498417593.94,41473,24.38,74010.3,6.67,-4.61,-6.43,0,*7D
1498417595.17,41474,24.38,74004.8,6.69,-4.53,-6.27,0,*77
1498417596.38,41475,24.38,74010.5,6.69,-4.45,-6.13,0,*76
1498417597.58,41476,24.38,74010.0,6.69,-4.41,-6.13,0,*71
1498417598.77,41477,24.38,74008.8,6.67,-4.49,-6.13,0,*76
1498417599.98,41478,24.44,74010.0,6.69,-4.29,-6.09,0,*7A
1498417601.19,41479,24.38,74008.3,6.69,-4.33,-6.09,0,*70
1498417602.44,41480,24.44,74012.0,6.69,-4.21,-5.89,0,*7E
1498417603.66,41481,24.44,74010.5,6.71,-4.05,-5.73,0,*75
1498417604.87,41482,24.38,74010.8,6.71,-4.13,-5.69,0,*7A
1498417606.12,41483,24.38,74008.3,6.71,-4.01,-5.69,0,*78
1498417607.35,41484,24.38,74010.0,6.71,-4.01,-5.55,0,*70
1498417608.57,41485,24.38,74010.0,6.69,-3.91,-5.47,0,*75
1498417609.79,41486,24.38,74006.5,6.69,-3.91,-5.43,0,*72
1498417611.04,41487,24.38,74008.8,6.69,-3.87,-5.31,0,*71
1498417612.28,41488,24.38,74010.5,6.69,-3.87,-5.19,0,*74
1498417613.55,41489,24.38,74010.8,6.69,-3.67,-5.11,0,*73
1498417614.79,41490,24.38,74012.3,6.71,-3.67,-5.11,0,*72
1498417616.04,41491,24.38,74006.5,6.71,-3.67,-5.07,0,*74
1498417617.28,41492,24.38,74010.5,6.71,-3.55,-4.93,0,*7A
1498417618.52,41493,24.38,74010.0,6.71,-3.67,-4.93,0,*7A
1498417619.76,41494,24.38,74008.3,6.71,-3.55,-4.93,0,*7C
1498417621.02,41495,24.38,74010.8,6.73,-3.51,-4.77,0,*71
1498417622.26,41496,24.38,74008.0,6.73,-3.39,-4.77,0,*7C
1498417623.51,41497,24.38,74008.8,6.73,-3.27,-4.73,0,*76
1498417624.73,41498,24.38,74010.0,6.73,-3.35,-4.65,0,*7D
1498417625.92,41499,24.38,74010.5,6.71,-3.31,-4.53,0,*7F
1498417627.11,41500,24.38,74008.3,6.71,-3.31,-4.45,0,*79
1498417628.33,41501,24.38,74008.8,6.73,-3.19,-4.37,0,*75
1498417629.55,41502,24.38,74010.8,6.73,-3.19,-4.29,0,*79
1498417630.76,41503,24.38,74010.5,6.73,-3.19,-4.17,0,*75
1498417631.94,41504,24.38,74010.8,6.71,-3.11,-4.17,0,*78
1498417633.13,41505,24.38,74012.3,6.71,-3.03,-4.17,0,*7A
1498417634.32,41506,24.38,74008.3,6.71,-3.03,-4.05,0,*7A
1498417635.53,41507,24.38,74008.8,6.73,-2.95,-3.95,0,*79
1498417636.75,41508,24.38,74012.0,6.73,-2.95,-3.83,0,*71
1498417637.96,41509,24.38,74014.3,6.73,-2.83,-3.75,0,*7E
1498417639.19,41510,24.38,74010.3,6.73,-2.87,-3.71,0,*76
1498417640.45,41511,24.38,74010.0,6.73,-2.75,-3.71,0,*7A
1498417641.69,41512,24.38,74012.3,6.75,-2.71,-3.59,0,*71
1498417642.95,41513,24.38,74012.3,6.73,-2.63,-3.51,0,*7D
1498417644.19,41514,24.38,74008.3,6.71,-2.63,-3.43,0,*7B
1498417645.4,41515,24.38,74008.8,6.75,-2.63,-3.35,0,*7F
1498417646.61,41516,24.38,74012.8,6.75,-2.59,-3.35,0,*75
1498417647.83,41517,24.44,74012.3,6.75,-2.51,-3.35,0,*7C
1498417649.05,41518,24.38,74012.3,6.75,-2.47,-3.27,0,*77
1498417650.26,41519,24.38,74014.8,6.75,-2.47,-3.23,0,*72
1498417651.47,41520,24.38,74008.5,6.75,-2.47,-3.11,0,*79
1498417652.66,41521,24.38,74008.0,6.75,-2.35,-3.07,0,*7A
1498417653.85,41522,24.38,74010.0,6.75,-2.43,-2.99,0,*7E
1498417655.04,41523,24.38,74014.0,6.75,-2.43,-2.87,0,*70
1498417656.23,41524,24.38,74008.8,6.75,-2.35,-2.87,0,*76
1498417657.45,41525,24.44,74012.3,6.75,-2.31,-2.75,0,*7E
1498417658.66,41526,24.38,74012.5,6.75,-2.23,-2.71,0,*7A
1498417659.88,41527,24.38,74012.8,6.75,-2.19,-2.71,0,*72
1498417661.09,41528,24.38,74010.8,6.75,-2.19,-2.63,0,*7E
1498417662.31,41529,24.38,74012.5,6.75,-2.19,-2.59,0,*76
1498417663.55,41530,24.38,74012.8,6.75,-2.11,-2.59,0,*76
1498417664.76,41531,24.38,74010.8,6.79,-2.03,-2.39,0,*7E
1498417665.96,41532,24.38,74010.3,6.79,-1.95,-2.27,0,*7E
1498417667.18,41533,24.38,74012.5,6.75,-1.95,-2.31,0,*74
1498417668.39,41534,24.38,74012.3,6.79,-1.95,-2.19,0,*75
1498417669.59,41535,24.38,74012.3,6.79,-1.91,-2.15,0,*7C
1498417670.8,41536,24.38,74012.3,6.79,-1.91,-2.15,0,*7F
1498417672.04,41537,24.38,74012.0,6.79,-1.83,-2.03,0,*7A
1498417673.27,41538,24.38,74012.5,6.79,-1.91,-1.95,0,*7A
1498417674.5,41539,24.38,74014.0,6.79,-1.83,-1.91,0,*7C
1498417675.72,41540,24.38,74012.5,6.79,-1.71,-1.91,0,*7F
1498417676.92,41541,24.38,74012.8,6.79,-1.75,-1.87,0,*7D
1498417678.1,41542,24.38,74014.8,6.79,-1.59,-1.79,0,*71
1498417679.29,41543,24.38,74012.8,6.79,-1.59,-1.71,0,*78
1498417680.47,41544,24.38,74010.3,6.79,-1.59,-1.67,0,*78
1498417681.65,41545,24.44,74016.3,6.79,-1.59,-1.67,0,*79
1498417682.82,41546,24.38,74014.5,6.79,-1.59,-1.59,0,*77
1498417684.01,41547,24.38,74014.5,6.79,-1.55,-1.51,0,*72
1498417685.19,41548,24.38,74012.5,6.79,-1.55,-1.55,0,*79
1498417686.37,41549,24.38,74014.0,6.79,-1.55,-1.51,0,*7C
1498417687.55,41550,24.38,74012.0,6.79,-1.51,-1.51,0,*70
1498417688.79,41551,24.38,74012.3,6.79,-1.47,-1.43,0,*75
1498417690.02,41552,24.38,74012.0,6.79,-1.43,-1.39,0,*7F
1498417691.24,41553,24.38,74012.3,6.81,-1.29,-1.29,0,*74
1498417692.44,41554,24.38,74014.8,6.81,-1.25,-1.25,0,*73
1498417693.65,41555,24.38,74014.3,6.83,-1.25,-1.13,0,*75
1498417694.91,41556,24.38,74010.8,6.81,-1.13,-1.01,0,*72
1498417696.17,41557,24.38,74014.3,6.81,-1.13,-1.01,0,*73
1498417697.41,41558,24.38,74012.3,6.83,-1.13,-1.01,0,*7E
1498417698.63,41559,24.38,74014.3,6.83,-1.17,-1.01,0,*7B
1498417699.88,41560,24.38,74012.3,6.81,-1.13,-1.01,0,*77
1498417701.15,41561,24.38,74014.5,6.81,-1.05,-1.01,0,*71
1498417702.38,41562,24.38,74014.5,6.83,-1.01,-0.89,0,*45
1498417703.61,41563,24.38,74014.8,6.83,-1.01,-0.89,0,*44
1498417704.83,41564,24.38,74014.0,6.83,-0.93,-0.89,0,*79
1498417706.06,41565,24.38,74012.3,6.81,-0.89,-0.77,0,*70
1498417707.27,41566,24.38,74014.5,6.83,-0.89,-0.73,0,*75
1498417708.5,41567,24.38,74012.5,6.81,-0.89,-0.65,0,*71